Погода в Нитерое

Бразилия     22°52′33″S   43°06′24″W
темп.,
°C
ветер,
м/с
пор.,
м/с
влажн.,
%
обл.,
%
осадки,
мм/ч
давл.,
гПа
погр.,
м
26 февраля, пт
пт2600:00+24с2376100 0.4 1012150
03:00+24с1171100 0.4 101188
06:00+24с2275100 0.0 1011140
09:00+26ююз006998 0.0 1013225
12:00+25ю4476100 0.0 1013271
15:00+26юв3480100 0.0 1011371
18:00+26вюв3483100 0.0 1012171
21:00+25св3484100 0.6 1014112
27 февраля, сб
сб2700:00+24ссв3490100 0.9 1014189
03:00+23зсз2292100 3.4 1013177
06:00+23св1287100 0.5 1014159
09:00+25с1181100 0.5 1015312
12:00+25юв4483100 0.0 1015345
15:00+27юв5679100 0.0 1013329
18:00+26вюв6882100 0.0 1013206
21:00+25в5686100 0.1 1014163
28 февраля, вс
вс2800:00+24всв458785 0.0 1015147
03:00+24ссв238687 0.1 1013152
06:00+23св22840 0.0 1014138
09:00+25св127337 0.0 1015247
12:00+28юв457231 0.0 1015480
15:00+27вюв9117556 0.0 1012550
18:00+26в8108185 0.3 1012337
21:00+25всв6118292 0.3 1014440
1 марта, пн
пн100:00+25всв478192 0.0 1014345
03:00+24св468290 0.0 1013278
06:00+23св338199 0.0 1013195
09:00+26св126699 0.0 1014241
12:00+28вюв457378 0.0 1014419
15:00+28вюв8107483 0.0 1011478
18:00+27в7107665 0.0 1011285
21:00+25всв588366 0.0 1013229
2 марта, вт
вт200:00+24св348268 0.0 1013150
03:00+24св337838 0.0 1012121
06:00+24ссв337757 0.0 1013118
09:00+27с237142 0.0 1015154
12:00+28юв446546 0.0 1014404
15:00+28вюв677342 0.0 1012233
18:00+28в797347 0.0 1012174
21:00+26всв458147 0.0 101489